Temp
63 63 64 64 64 64 64 64 64 63 63 64 64 64 64 64 64 73 75 80 79 70 72 82 82 81 81 78 78 78 68 66 70 69 73 79 75 81 82 78 83 82 81 85 78
63 63 63 63 63 64 64 64 63 63 63 63 63 63 63 63 74 76 78 73 71 70 81 79 77 78 78 75 75 72 67 70 78 79 76 79 77 78 78 78 80 82 85 86 79
62 62 63 63 63 63 64 63 63 63 63 63 63 63 63 66 75 81 72 72 70 73 85 85 82 78 73 75 74 73 66 76 77 79 78 75 75 80 74 72 80 81 85 87 87
62 62 62 62 63 63 63 63 63 63 63 63 63 62 62 75 67 79 71 71 70 82 81 79 77 72 70 69 76 65 73 73 74 76 71 71 77 73 74 76 83 84 85 85 83
61 61 61 62 62 63 63 63 63 63 63 63 62 62 70 73 76 78 69 70 77 79 78 76 74 73 68 73 72 66 70 74 75 74 71 72 70 72 73 80 83 84 83 83 82
61 61 61 61 62 62 63 63 63 62 62 62 62 61 72 66 79 80 77 74 80 78 78 79 76 78 72 70 69 73 68 69 72 72 72 67 69 72 76 82 82 82 82 83 82
61 61 61 61 61 62 62 62 62 62 62 63 63 68 71 73 79 78 76 76 77 79 75 79 78 73 74 68 74 68 62 68 70 73 72 69 63 65 78 81 79 79 82 84 85
61 60 60 60 61 61 61 62 61 62 62 62 62 71 70 72 80 74 77 74 76 78 76 76 77 73 69 74 68 63 66 57 71 68 68 66 59 73 80 76 76 77 79 80 82
60 60 60 60 60 60 61 61 61 62 62 62 68 71 70 68 71 73 77 73 73 74 74 74 74 69 70 61 60 64 55 60 64 74 67 62 60 71 75 73 73 75 77 79 80
60 60 60 60 60 60 60 62 62 62 66 70 73 66 73 69 69 69 73 74 70 69 68 68 67 62 64 61 51 58 60 62 61 68 68 64 63 69 74 73 73 75 76 76 78
60 60 60 60 60 61 65 72 69 67 69 68 68 67 71 70 71 67 70 70 70 67 60 63 58 55 62 66 64 62 58 57 62 68 64 62 62 65 70 72 72 75 76 76 75
60 60 60 60 61 61 66 68 63 62 58 70 67 65 69 68 63 64 70 64 62 58 63 56 53 63 66 64 58 58 55 55 62 67 63 60 58 63 67 70 72 73 73 73 73
60 59 59 60 61 65 68 64 67 66 58 63 62 61 63 65 62 64 66 65 60 58 57 54 61 65 59 59 56 57 55 56 55 60 61 58 56 62 70 73 72 70 70 70 65
59 59 60 60 61 69 66 65 66 65 53 57 57 60 62 63 57 62 65 63 59 55 58 57 59 55 56 54 57 50 61 57 53 51 47 57 44 57 65 68 64 64 62 62 60
58 58 60 59 68 66 64 66 65 61 39 57 58 67 63 59 59 58 65 62 56 57 56 55 54 53 52 55 59 53 56 54 52 49 49 51 46 56 66 60 59 60 58 56 55
57 57 58 64 66 66 67 65 63 51 37 53 59 56 56 58 57 59 59 64 63 56 57 56 60 56 57 59 58 58 54 55 55 50 41 53 51 53 58 59 58 55 54 53 54
56 57 58 66 63 66 66 63 47 41 57 52 53 56 56 54 54 55 55 54 54 49 52 56 55 63 58 53 56 52 49 40 39 39 39 51 46 53 60 59 59 52 51 51 52
56 57 57 64 67 64 62 52 36 49 53 56 54 53 51 56 57 55 54 53 61 55 49 46 45 56 56 54 52 50 51 40 29 33 39 46 39 52 57 53 53 53 52 51 50
56 61 61 64 64 62 54 40 45 52 57 53 54 50 52 55 53 54 55 54 54 56 47 45 45 53 53 55 54 49 43 52 35 34 31 42 51 60 51 50 51 50 50 49 49
59 57 58 62 64 59 47 43 51 57 55 55 47 54 47 51 50 50 51 54 50 52 55 47 37 51 52 52 53 48 50 39 38 27 27 39 43 47 49 48 49 47 47 47 49
54 50 55 60 61 50 39 45 51 57 56 51 49 48 50 48 50 48 48 51 54 51 53 49 40 44 49 46 46 46 41 42 42 38 30 30 39 58 47 49 46 45 45 46 46
49 44 55 58 44 47 42 48 49 50 54 51 51 49 48 49 46 47 46 51 55 52 45 49 43 35 42 52 55 51 46 46 35 33 36 35 37 59 47 46 45 44 44 44 45
46 47 54 51 40 42 48 47 50 48 49 49 47 50 52 47 41 46 48 53 52 50 45 44 38 30 35 46 45 38 40 38 37 34 30 28 34 47 45 42 41 41 41 42 42
47 40 43 44 50 46 44 44 44 50 49 51 49 50 47 44 47 43 44 47 47 47 42 44 35 32 29 37 43 36 38 38 33 29 31 31 33 43 47 46 43 43 42 42 42
44 43 46 36 38 43 47 45 42 42 47 48 45 45 44 38 41 40 45 46 45 41 44 43 30 36 37 39 38 34 33 36 35 36 30 34 35 41 44 44 40 41 41 41 41
40 39 42 42 45 43 41 41 41 42 42 41 41 44 42 36 40 32 36 38 38 42 39 37 29 33 27 35 36 32 36 37 37 36 36 36 36 48 44 42 42 42 41 40 41
43 43 41 39 38 39 39 41 41 44 42 42 41 39 36 41 42 41 41 41 40 35 35 33 30 27 22 33 31 23 28 33 35 39 39 33 36 33 36 38 39 40 40 40 41
MSLP
1019.63 1019.48 1019.32 1019.20 1018.98 1018.78 1018.55 1018.34 1018.17 1018.00 1017.82 1017.60 1017.29 1017.02 1016.85 1016.65 1016.13 1015.77 1014.37 1013.47 1013.50 1013.99 1014.09 1013.99 1013.90 1013.67 1013.52 1013.09 1013.16 1012.79 1011.37 1009.64 1008.86 1008.82 1008.38 1008.96 1009.22 1009.30 1009.55 1009.35 1008.84 1008.96 1008.86 1009.05 1010.28
1019.72 1019.51 1019.35 1019.19 1019.02 1018.81 1018.57 1018.36 1018.11 1017.91 1017.77 1017.55 1017.32 1016.98 1016.62 1016.47 1015.58 1014.27 1013.28 1013.46 1013.70 1013.96 1013.81 1013.54 1013.37 1013.48 1012.87 1012.80 1012.81 1012.40 1010.95 1009.51 1008.93 1008.90 1008.84 1008.95 1009.25 1009.23 1009.18 1008.85 1008.23 1008.04 1008.16 1008.60 1009.70
1019.80 1019.64 1019.39 1019.17 1018.93 1018.68 1018.47 1018.26 1018.03 1017.77 1017.52 1017.39 1017.30 1017.09 1016.70 1016.23 1014.92 1013.10 1013.39 1013.52 1013.82 1013.96 1013.43 1013.25 1013.14 1013.30 1012.80 1012.70 1012.30 1011.60 1010.66 1009.83 1009.46 1009.58 1009.66 1009.61 1009.48 1009.29 1009.19 1008.32 1007.73 1007.27 1007.26 1007.64 1008.11
1019.72 1019.63 1019.44 1019.18 1018.92 1018.63 1018.36 1018.13 1017.89 1017.68 1017.44 1017.22 1017.06 1016.97 1016.74 1015.76 1014.38 1013.45 1013.58 1013.72 1014.00 1013.81 1013.62 1013.38 1013.21 1013.00 1012.58 1012.11 1011.75 1011.80 1010.97 1010.72 1010.17 1010.29 1010.62 1010.06 1009.55 1009.30 1009.14 1007.96 1007.87 1007.57 1007.44 1007.46 1007.73
1019.50 1019.40 1019.27 1019.08 1018.85 1018.57 1018.26 1017.95 1017.68 1017.46 1017.25 1017.05 1016.90 1016.83 1016.48 1015.21 1013.50 1013.40 1013.66 1013.89 1014.05 1013.90 1013.47 1013.28 1013.00 1012.72 1012.24 1011.68 1011.90 1011.66 1011.09 1010.63 1010.44 1010.51 1010.71 1010.68 1009.75 1009.51 1008.45 1008.18 1007.52 1007.25 1007.08 1006.94 1007.04
1019.36 1019.23 1019.11 1018.90 1018.67 1018.38 1018.09 1017.81 1017.47 1017.14 1016.89 1016.74 1016.73 1016.79 1016.12 1014.48 1013.30 1013.31 1013.64 1013.89 1013.58 1013.74 1013.35 1013.15 1012.73 1012.63 1012.39 1012.11 1011.95 1011.20 1011.37 1010.81 1010.34 1010.22 1010.35 1010.46 1009.59 1009.46 1007.28 1007.54 1006.87 1006.67 1006.54 1006.39 1006.43
1019.22 1019.07 1018.89 1018.64 1018.42 1018.14 1017.87 1017.59 1017.17 1016.79 1016.52 1016.33 1016.41 1016.29 1015.19 1013.69 1013.34 1013.60 1013.74 1013.78 1013.83 1013.56 1013.35 1013.35 1013.40 1013.29 1012.69 1012.11 1011.80 1012.04 1011.40 1010.39 1009.51 1009.20 1009.31 1010.30 1009.10 1008.34 1007.28 1006.83 1006.64 1006.50 1006.04 1005.59 1005.55
1019.14 1018.89 1018.71 1018.49 1018.15 1017.85 1017.62 1017.37 1016.99 1016.64 1016.34 1016.18 1016.27 1015.79 1014.26 1013.93 1013.58 1013.88 1013.90 1013.91 1014.01 1014.01 1013.92 1013.99 1013.86 1013.57 1013.23 1012.37 1012.27 1011.87 1010.86 1009.89 1008.73 1009.18 1009.65 1010.32 1008.33 1007.42 1006.93 1007.00 1006.47 1006.04 1005.68 1005.47 1005.20
1018.98 1018.74 1018.53 1018.31 1018.05 1017.69 1017.40 1016.97 1016.72 1016.54 1016.36 1016.35 1016.10 1015.27 1013.76 1014.15 1013.90 1013.94 1013.78 1013.66 1013.88 1014.01 1014.19 1014.28 1014.06 1013.44 1012.90 1012.58 1011.78 1010.90 1009.67 1009.02 1008.54 1008.51 1009.37 1009.94 1008.30 1007.51 1007.47 1007.14 1006.45 1005.38 1005.08 1005.05 1004.99
1018.77 1018.67 1018.41 1018.23 1017.96 1017.57 1017.15 1016.81 1016.55 1016.56 1016.18 1015.83 1015.39 1015.34 1013.77 1013.84 1014.11 1014.26 1014.20 1013.91 1013.85 1014.03 1014.03 1013.99 1013.61 1013.23 1012.55 1012.07 1010.63 1009.59 1008.86 1008.50 1008.28 1008.65 1008.61 1008.53 1007.59 1007.45 1007.04 1006.24 1005.41 1004.80 1004.75 1004.83 1004.91
1018.46 1018.52 1018.35 1018.14 1017.94 1017.60 1016.89 1016.38 1016.58 1016.08 1015.27 1014.47 1014.10 1013.96 1013.44 1014.06 1014.35 1014.25 1014.31 1014.18 1013.84 1013.71 1013.32 1013.49 1013.17 1012.22 1011.50 1011.18 1010.85 1010.48 1009.99 1009.18 1009.00 1009.02 1008.74 1008.18 1007.32 1007.12 1006.64 1005.53 1004.51 1004.78 1004.63 1004.74 1005.29
1018.25 1018.32 1018.18 1017.97 1017.72 1017.39 1017.06 1016.35 1017.18 1017.60 1015.69 1014.18 1013.82 1013.87 1013.79 1014.25 1014.04 1014.17 1014.49 1014.06 1013.86 1013.35 1013.23 1013.86 1012.63 1011.83 1011.52 1011.35 1011.53 1011.07 1010.33 1009.68 1009.06 1008.92 1008.82 1008.31 1007.54 1006.99 1005.99 1004.63 1004.60 1004.79 1005.34 1005.56 1006.36
1017.91 1018.08 1018.15 1017.79 1017.46 1017.39 1016.93 1017.36 1017.57 1017.59 1016.29 1013.95 1014.15 1013.99 1014.14 1014.32 1013.82 1013.80 1014.35 1013.80 1013.59 1013.23 1013.34 1012.85 1011.87 1011.68 1012.08 1011.71 1011.51 1010.83 1010.37 1009.78 1009.43 1009.48 1009.67 1008.50 1007.12 1005.78 1004.98 1004.39 1005.03 1005.97 1006.52 1007.39 1008.63
1017.81 1017.83 1017.93 1017.63 1017.84 1017.15 1017.19 1017.76 1017.76 1017.62 1016.04 1014.18 1014.23 1014.38 1014.36 1014.21 1014.33 1014.70 1014.45 1014.26 1013.73 1013.36 1013.08 1012.71 1012.73 1012.59 1012.33 1012.03 1011.72 1010.93 1011.03 1010.97 1010.84 1010.48 1009.52 1009.36 1006.78 1006.16 1004.90 1004.51 1006.30 1007.31 1009.19 1010.02 1010.51
1017.56 1017.70 1017.64 1017.50 1016.89 1016.85 1017.47 1017.66 1017.87 1017.75 1015.42 1014.10 1014.03 1014.41 1014.24 1014.25 1014.26 1014.45 1014.72 1014.07 1013.47 1013.18 1013.69 1012.60 1012.83 1012.95 1012.54 1012.03 1011.92 1011.53 1011.86 1011.74 1011.48 1010.99 1010.21 1009.48 1008.29 1005.47 1004.90 1005.53 1007.17 1009.07 1010.80 1012.11 1012.66
1017.53 1017.51 1017.67 1017.51 1017.01 1017.37 1017.50 1017.65 1017.53 1016.58 1014.43 1013.63 1013.78 1014.07 1014.00 1013.75 1014.12 1014.21 1014.37 1014.15 1013.62 1013.30 1012.92 1012.25 1012.85 1012.86 1012.33 1012.26 1012.34 1012.28 1012.28 1011.63 1011.01 1011.29 1009.69 1008.11 1007.66 1006.02 1005.75 1007.03 1008.61 1010.31 1011.70 1013.16 1014.19
1017.57 1017.38 1017.65 1017.44 1017.06 1017.30 1017.38 1017.05 1016.64 1014.88 1013.40 1013.31 1013.27 1013.55 1013.53 1013.33 1013.56 1013.70 1013.56 1013.50 1013.09 1012.74 1012.15 1011.79 1011.83 1011.05 1012.15 1012.29 1012.25 1012.55 1012.50 1011.57 1010.87 1010.65 1009.68 1009.28 1008.59 1007.58 1007.72 1008.77 1009.75 1011.57 1012.98 1013.97 1014.53
1017.61 1017.50 1017.60 1017.30 1017.51 1017.44 1017.40 1016.90 1015.45 1013.96 1012.93 1012.95 1013.25 1013.31 1013.20 1013.04 1012.73 1012.99 1012.89 1012.15 1012.02 1012.44 1012.47 1011.93 1010.98 1011.35 1012.05 1011.97 1011.92 1012.20 1012.25 1012.53 1012.28 1011.86 1010.71 1010.53 1008.88 1008.11 1008.79 1010.31 1011.55 1012.74 1013.55 1014.28 1014.81
1017.56 1017.21 1017.24 1017.24 1017.55 1017.63 1017.44 1015.85 1013.87 1013.17 1012.94 1012.98 1012.84 1012.78 1012.41 1012.60 1013.21 1012.78 1012.34 1012.25 1012.60 1012.95 1013.00 1012.41 1011.79 1012.45 1012.71 1012.72 1013.07 1012.62 1012.92 1012.96 1013.83 1013.95 1013.10 1010.47 1008.78 1008.68 1009.89 1011.05 1011.80 1013.01 1014.08 1014.88 1015.40
1017.32 1017.29 1017.15 1017.28 1017.41 1017.73 1017.39 1015.30 1013.83 1013.33 1013.43 1013.36 1012.67 1012.10 1012.02 1012.34 1012.78 1012.96 1012.77 1012.92 1013.35 1013.79 1013.75 1014.10 1013.87 1012.91 1012.98 1013.24 1013.12 1013.62 1013.98 1014.05 1014.75 1014.22 1012.35 1009.85 1008.72 1008.40 1009.71 1010.66 1012.38 1013.29 1014.42 1015.20 1015.54
1017.62 1017.57 1017.49 1017.41 1017.48 1017.75 1016.66 1015.34 1014.28 1013.80 1014.03 1013.82 1013.29 1012.73 1012.63 1012.89 1012.75 1012.86 1013.02 1013.66 1013.84 1014.43 1014.62 1015.02 1015.58 1013.85 1013.68 1013.06 1013.06 1013.83 1014.01 1014.34 1014.56 1014.07 1012.63 1011.18 1009.11 1008.62 1010.07 1011.37 1013.07 1014.35 1015.06 1015.72 1016.01
1018.02 1017.75 1017.51 1017.41 1017.75 1016.77 1015.47 1015.08 1014.77 1014.49 1014.42 1014.17 1014.08 1013.73 1013.27 1013.49 1013.49 1013.35 1013.26 1013.65 1014.44 1015.12 1015.34 1015.57 1015.69 1015.03 1013.57 1013.00 1013.31 1013.33 1013.69 1014.23 1014.39 1013.90 1013.14 1011.89 1009.75 1009.52 1011.67 1012.94 1014.51 1015.27 1015.86 1016.29 1016.53
1017.88 1017.72 1017.97 1017.95 1016.60 1015.70 1015.19 1014.92 1014.87 1014.63 1014.51 1014.41 1014.32 1014.34 1014.14 1013.93 1014.21 1013.92 1014.04 1014.62 1015.24 1015.73 1016.15 1016.71 1016.43 1015.97 1014.36 1013.32 1013.93 1014.17 1015.18 1015.72 1015.36 1014.71 1013.12 1012.23 1010.55 1011.59 1013.02 1014.78 1015.76 1016.23 1016.69 1016.67 1016.77
1017.90 1017.67 1017.94 1017.64 1016.23 1015.49 1015.07 1014.88 1014.66 1014.77 1014.76 1014.80 1014.49 1014.73 1014.83 1014.88 1015.04 1014.81 1015.00 1015.58 1016.38 1016.88 1017.67 1017.81 1017.90 1017.40 1016.34 1014.75 1014.75 1015.34 1015.61 1016.07 1016.06 1015.01 1013.78 1013.26 1012.27 1011.88 1012.37 1013.23 1014.69 1015.63 1016.20 1016.61 1016.85
1017.93 1016.48 1016.24 1016.54 1016.22 1015.87 1015.20 1015.01 1014.51 1014.83 1015.45 1015.30 1015.14 1015.20 1015.42 1015.59 1015.66 1015.75 1016.00 1016.24 1017.18 1017.99 1018.26 1018.66 1018.37 1017.98 1017.07 1016.50 1016.46 1016.44 1016.52 1015.50 1015.39 1014.87 1014.59 1013.20 1012.94 1012.77 1013.14 1013.81 1015.24 1016.25 1016.45 1016.60 1016.84
1017.95 1017.32 1017.38 1016.51 1015.76 1015.71 1015.65 1014.95 1015.23 1015.35 1015.80 1015.70 1015.81 1015.72 1016.43 1016.68 1016.75 1017.19 1017.78 1018.23 1018.17 1018.61 1018.98 1019.67 1018.81 1018.55 1017.83 1017.47 1017.11 1016.36 1015.43 1014.88 1014.94 1014.51 1014.16 1014.10 1013.27 1013.12 1013.82 1014.77 1015.22 1015.59 1015.88 1016.19 1016.45
1018.53 1018.04 1017.51 1016.66 1016.24 1016.05 1015.10 1015.13 1015.31 1015.91 1016.55 1016.81 1016.96 1017.26 1017.62 1017.68 1018.19 1018.81 1019.15 1019.35 1019.40 1019.62 1019.70 1019.95 1019.73 1019.39 1017.97 1017.77 1017.20 1016.04 1014.50 1014.91 1014.44 1014.13 1014.08 1013.82 1013.92 1014.45 1015.01 1015.36 1015.49 1015.83 1016.15 1016.24 1016.44
Wind_Speed
7 8 8 9 9 9 9 9 9 9 10 10 11 11 11 12 12 6 9 1 3 13 6 8 7 5 5 4 3 3 6 8 10 7 4 4 6 6 3 11 9 7 12 9 4
5 6 6 7 8 8 8 9 9 10 10 11 11 11 12 12 8 12 2 6 12 12 10 11 9 7 6 4 4 7 9 10 7 9 9 10 9 12 11 13 16 15 17 13 7
5 6 6 6 7 8 8 9 10 10 10 10 11 12 12 10 9 2 2 8 13 11 7 9 5 8 9 6 6 6 10 13 12 12 14 13 14 15 13 18 17 16 9 11 9
4 5 6 7 8 9 9 10 11 11 11 10 9 10 12 5 7 4 2 8 11 11 7 7 7 6 7 10 9 11 14 15 16 9 7 14 17 13 14 23 20 21 20 18 16
4 5 6 7 8 10 11 11 12 12 12 11 9 7 6 6 8 5 7 9 11 9 11 10 10 10 11 8 9 15 15 16 14 14 14 17 21 20 21 22 24 22 19 18 16
5 5 6 7 9 11 12 13 14 13 13 11 8 5 5 11 3 4 6 8 8 12 11 12 5 8 12 13 12 11 11 17 20 19 15 17 20 16 25 16 19 16 16 16 16
5 5 6 7 10 12 14 15 16 15 10 7 6 5 7 12 3 4 5 3 3 8 9 10 5 7 5 10 7 9 13 16 22 20 13 5 16 15 19 13 15 16 17 16 13
5 5 7 8 10 12 13 14 12 9 7 3 7 5 8 2 3 3 3 2 2 3 5 2 6 8 8 7 7 10 15 15 12 2 3 8 16 16 9 10 13 18 21 20 21
6 6 8 9 11 14 14 14 1 4 5 7 5 5 5 3 1 2 3 3 5 4 2 2 5 8 8 10 13 14 16 19 15 12 2 11 12 12 20 20 22 26 23 20 20
7 7 8 10 11 14 17 5 6 4 5 4 2 5 4 2 3 2 1 6 3 7 5 6 7 9 11 12 14 18 20 20 14 13 15 18 22 19 20 23 24 23 20 17 15
7 7 9 9 11 13 12 5 5 6 6 5 8 9 12 4 3 3 0 5 5 7 7 9 9 11 15 16 20 22 22 24 21 20 23 24 24 20 19 25 24 19 13 6 9
6 7 8 7 8 11 7 4 4 4 10 11 13 9 5 2 4 3 4 7 5 9 6 4 12 15 16 15 13 18 22 23 21 18 16 19 23 25 23 21 15 12 10 3 11
5 4 5 4 6 6 3 3 3 3 7 3 2 3 0 4 5 2 5 2 8 12 10 16 16 15 10 13 17 20 18 21 24 18 18 18 19 10 10 17 5 10 13 16 17
6 4 4 4 3 1 2 3 1 1 6 5 3 3 3 2 2 2 1 3 3 6 7 11 6 5 10 12 16 18 16 14 15 12 9 7 10 16 18 13 15 19 15 14 15
5 3 3 3 3 3 5 3 2 4 7 2 4 2 2 3 4 3 2 5 5 4 3 1 1 3 7 10 11 13 6 10 10 12 16 13 10 6 13 5 15 15 14 14 14
4 2 1 3 2 3 4 3 3 5 8 2 3 3 3 4 3 4 4 5 1 4 8 12 4 5 7 7 8 8 10 14 16 8 9 11 12 5 5 11 9 14 13 12 12
4 4 1 2 2 4 4 4 5 7 4 4 2 3 3 4 4 6 7 8 7 8 10 6 14 12 6 9 8 7 9 7 5 7 7 5 8 8 8 8 10 11 10 10 11
2 2 3 1 3 4 3 3 8 2 9 6 2 3 5 3 6 4 6 13 9 8 7 8 11 5 9 10 6 7 4 4 6 10 15 14 9 7 11 12 12 10 10 10 10
3 2 2 2 4 1 4 8 7 9 11 6 5 8 15 9 6 5 11 13 5 7 7 6 6 3 5 1 3 4 6 5 2 3 6 10 17 15 14 11 11 9 8 8 7
2 2 3 4 7 3 5 9 10 7 1 7 12 9 11 8 8 6 8 4 3 3 4 3 8 5 2 1 7 3 4 3 5 6 12 14 18 14 14 13 9 8 6 7 7
2 3 4 6 6 5 9 9 10 10 6 7 11 16 14 13 10 12 6 3 4 5 3 3 4 4 4 7 12 6 6 5 6 8 11 15 13 9 10 8 5 5 7 8 9
2 4 4 7 7 6 11 6 3 7 6 10 6 13 14 8 9 15 16 13 6 4 4 9 4 9 21 21 20 16 18 17 13 13 10 15 18 8 14 6 4 3 4 3 4
4 3 1 4 9 11 9 9 11 8 8 6 7 9 7 10 6 11 13 3 5 2 3 3 2 5 9 12 6 4 5 7 10 4 13 15 6 10 7 5 2 5 3 2 3
4 6 3 3 8 10 15 13 13 5 10 11 8 8 11 12 11 7 6 4 4 4 4 3 4 12 14 19 19 14 14 11 7 6 12 14 20 28 24 16 13 9 4 4 2
3 4 2 8 10 14 10 4 11 11 9 5 7 17 13 9 12 16 15 8 3 2 3 4 9 14 17 18 17 17 17 25 24 23 22 23 24 23 20 12 3 2 2 4 6
3 3 2 0 8 17 15 12 15 10 6 9 12 7 7 6 7 3 4 4 9 4 3 3 9 9 15 16 18 20 24 24 23 24 25 24 27 22 6 3 4 4 4 5 6
2 1 4 4 7 9 13 16 10 11 5 7 5 5 6 8 2 2 3 5 7 5 6 5 5 6 15 14 15 13 20 22 23 25 25 23 13 6 4 3 6 8 9 10 10
Wind_Direction
40 34 30 24 21 18 15 10 3 356 347 341 339 338 335 334 302 229 260 232 148 160 197 157 192 195 213 216 237 276 255 263 273 266 279 142 266 145 313 280 253 231 276 344 81
22 22 16 11 4 359 355 351 348 344 337 335 333 330 329 333 281 269 132 133 142 168 177 186 196 195 221 231 210 232 247 275 281 286 279 298 270 290 285 270 268 257 242 247 215
355 352 354 351 344 341 338 334 330 325 323 323 324 323 322 313 286 70 111 142 165 187 228 227 264 215 250 259 218 220 251 275 292 284 294 285 286 278 260 271 270 280 289 291 264
330 331 332 334 330 328 325 322 316 313 312 311 312 317 319 262 301 74 358 164 167 195 195 189 202 219 249 237 253 265 252 269 286 298 287 272 288 277 266 266 284 288 292 292 285
302 311 316 319 319 320 317 314 314 309 305 302 299 311 281 238 260 97 120 135 166 196 207 209 226 239 257 269 284 247 272 278 283 280 269 280 270 274 271 277 281 283 283 274 262
289 302 311 314 313 315 315 316 314 308 302 293 277 285 245 261 68 106 126 157 185 203 216 218 233 262 289 278 260 315 293 282 278 273 264 267 274 283 273 271 280 281 281 272 265
288 302 311 314 315 314 315 318 317 313 304 285 228 232 247 258 47 113 146 173 211 228 231 233 274 234 329 262 290 281 291 293 281 268 255 257 270 242 267 266 275 288 284 289 277
282 294 303 307 307 305 310 315 315 316 318 252 180 211 261 42 65 173 181 128 190 203 257 291 228 262 253 287 253 269 269 275 286 73 153 197 276 293 341 322 287 281 286 287 285
272 283 297 307 315 314 320 319 225 58 101 139 198 248 262 150 164 45 249 236 150 161 95 146 210 239 222 244 273 245 270 279 295 303 43 213 282 294 312 296 287 281 287 292 293
273 286 302 313 319 318 322 288 189 184 201 234 256 234 183 19 95 90 72 172 164 153 153 190 207 230 235 249 252 282 290 299 284 285 277 272 275 293 295 294 279 280 290 292 294
260 282 296 311 317 322 324 240 226 202 216 279 291 282 312 76 187 94 156 175 159 204 216 192 224 221 249 254 262 280 287 285 288 293 290 288 294 297 286 279 283 287 305 306 50
257 279 292 307 310 313 285 351 33 356 292 263 262 275 284 293 286 154 190 202 209 238 192 190 243 257 276 276 289 280 280 283 284 292 306 298 291 291 285 275 283 295 313 65 97
221 250 285 314 313 284 23 52 12 324 261 253 230 261 319 233 253 254 230 238 231 253 229 258 276 299 287 266 268 266 276 287 297 312 299 291 285 254 277 298 31 37 82 77 64
177 192 266 305 274 67 119 91 107 335 270 148 165 114 151 228 168 348 251 276 216 296 292 268 346 309 282 267 269 283 299 314 307 311 295 21 292 297 273 265 80 93 70 71 68
157 203 253 344 9 232 89 128 123 246 286 69 121 98 142 250 113 121 207 170 239 240 248 55 74 317 273 275 287 282 340 312 298 278 284 269 251 289 286 181 114 91 74 63 58
115 86 185 221 224 89 146 168 232 231 246 157 118 163 199 181 180 131 218 257 343 235 216 252 172 230 245 292 251 317 285 274 261 269 260 276 252 280 49 105 113 96 81 63 49
85 71 260 286 30 147 199 225 241 235 130 156 161 183 266 179 200 215 190 197 258 280 261 231 238 262 212 265 201 222 271 307 279 208 269 60 331 267 347 81 116 109 90 73 66
109 172 132 321 146 169 225 198 233 267 246 110 159 173 250 163 238 224 275 265 268 240 287 277 291 202 162 222 318 192 257 218 279 289 296 321 260 250 126 116 110 111 98 82 63
181 122 180 186 164 202 226 218 225 222 240 248 216 268 257 234 244 286 256 279 328 211 246 287 242 102 212 351 274 155 221 279 211 217 266 248 267 263 140 142 135 118 95 70 63
141 181 208 154 162 185 232 245 243 248 253 249 239 244 262 218 221 228 272 74 170 242 226 59 288 259 283 219 223 247 1 199 164 255 258 260 278 270 206 176 153 120 72 38 28
135 218 101 155 159 191 226 238 259 251 247 242 252 262 267 267 263 257 250 185 215 192 254 165 201 248 273 217 252 227 246 226 291 246 260 271 268 308 66 113 127 56 32 20 15
146 228 144 173 178 202 220 216 240 210 204 246 278 262 259 264 273 255 252 254 100 136 218 196 250 255 270 287 282 274 269 267 254 248 226 251 249 288 26 88 53 9 4 27 26
188 166 157 258 215 217 227 228 233 197 211 197 236 234 246 248 255 247 252 14 24 290 346 34 232 285 288 283 55 32 352 322 298 274 246 261 270 36 14 9 1 333 291 314 344
174 173 164 235 259 244 220 232 218 213 238 235 243 259 249 247 242 255 248 102 58 84 101 120 237 242 265 277 305 298 307 270 240 264 294 277 287 293 286 277 252 275 219 233 241
230 201 162 199 219 224 230 240 223 213 216 224 247 238 235 241 249 255 256 261 193 107 166 250 256 265 270 278 291 292 282 271 270 269 266 280 282 283 299 326 31 176 237 264 260
238 190 191 193 214 212 217 228 226 196 197 214 237 170 173 240 237 340 15 230 255 226 236 191 261 287 274 272 268 267 265 267 274 275 273 272 270 275 0 327 295 319 334 326 307
156 198 275 146 187 202 214 227 235 241 182 257 276 238 243 256 316 2 287 292 269 247 252 239 251 256 263 280 299 274 254 260 260 265 269 274 306 31 43 328 332 333 325 316 319